COSMOS 2251 DEB

Satellite information

Favourite Embed

Satellite Type and Status

DEBRISIN ORBIT

Key statistics

Satellite COSMOS 2251 DEB at a glance.

Uptime

11650

Days in orbit

Revolutions

≈ 13.9

Per day

Orbit

LEO

Low Earth Orbit

Inclination

74.1

Latest

Satellite identification and parameters

Extended collection of information and parameters for COSMOS 2251 DEB.

Object identification

Identified? True

Debris? True

Object name: COSMOS 2251 DEB

International designator: 1993-036BDV

Object number (NORAD): 36559

Object ID (CCSDS): 36559

Country: COMMONWEALTH OF INDEPENDENT STATES (CIS)

Current information (Y/N): Y

RCS size: SMALL

Orbital parameters

Period: 103.786 minutes

Inclination: 74.1305 deg

SMA: 7315.657 km

Apoapsis: 1144.987 km

Periapsis: 730.056 km

RAAN: 21.7663 deg

Eccentricy: 0.0283591

Argument of periapsis: 163.5991 deg

Mean anomaly: 197.4553 deg

Mean motion: 13.87467328 rev/day

Mean motion (dot): 0.0015663 rev/day2

B* drag term: 0.094633 1/REarth

Two-line elements (TLE)

Creation date: April 9, 2025, 5:26 p.m.

Reference frame: TEME

Reference center: EARTH

Epoch: Oct. 8, 2024, 6:01 a.m. UTC

TLE line 0: 0 COSMOS 2251 DEB

TLE line 1: 1 36559U 93036BDV 24282.25114465 .00156630 00000-0 94633-1 0 9992

TLE line 2: 2 36559 74.1305 21.7663 0283591 163.5991 197.4553 13.87467328753645

Live tracking on map

Real-time ground track for satellite COSMOS 2251 DEB.

In-orbit conjunctions

A list of the most updated potential collisions computed for object COSMOS 2251 DEB.

Target Orbit TCA Probability of collision Miss distance Type
COSMOS 2251 DEB LEO 2024-09-26 05:57:31 0.0001970919 580.0 (m) DEBRIS

Associated space launch

Military communications satellite. Destroyed in a collision with Iridium 33.

COSMOS 2251 DEB was lifted into orbit during the mission ‘Kosmos-3M | Strela-2M 51’, on board a Kosmos-3M space rocket.

The launch took place on June 16, 1993, 4:17 a.m. from 132/1 (132L).

For more information about the launch, click the button.

Launch to space Kosmos-3M | Strela-2M 51
Kosmos-3M | Strela-2M 51

Agency: N/A

Status: Launch Successful

Launch date: June 16, 1993, 4:17 a.m. UTC

Rocket: Kosmos-3M

Launch pad: 132/1 (132L)

Location: Plesetsk Cosmodrome, Russian Federation

...

Latest news about this satellite

There are no fresh news available about this satellite. Check back as we update our databases every day.


Newsletter sign-up

Weekly statistics, charts and insights to help you stay on top of the space industry.